Cloud_Cover
15 90 67 5 0 1 2 5 100 100 100 100 100 100 100 100 96 100 100 96 88 97 68 85 2 0 0 0 0 12 8 0
72 93 14 87 11 16 5 3 100 100 100 100 100 100 100 100 98 100 99 98 63 88 76 59 3 1 0 0 0 10 72 100
91 98 44 100 5 82 32 20 26 100 100 100 100 100 100 100 100 100 100 99 88 98 53 99 48 12 5 3 5 4 3 100
100 35 84 98 89 4 74 6 5 81 100 100 100 100 100 100 100 100 100 100 88 100 94 100 84 67 78 98 99 100 100 100
87 36 85 41 98 0 80 57 0 5 89 100 100 100 100 100 100 100 100 100 94 98 100 100 100 99 100 100 100 100 95 69
100 27 99 100 100 15 92 54 1 33 72 99 100 100 100 100 100 100 100 100 94 66 95 100 94 72 100 100 100 100 94 99
100 100 100 100 100 46 13 50 6 93 94 97 100 100 100 100 100 100 100 100 89 98 92 100 100 83 100 100 86 100 71 100
100 100 100 100 100 43 0 28 6 23 74 100 100 100 100 100 100 100 100 100 100 100 100 100 100 100 100 100 100 100 100 100
96 100 100 100 100 91 0 62 100 29 46 100 100 100 100 100 100 100 100 100 100 100 100 100 100 100 100 100 100 100 100 100
100 100 75 100 100 78 5 3 39 49 100 100 100 100 100 100 100 100 100 100 100 100 100 100 94 100 100 100 100 100 100 100
100 96 100 100 100 100 90 5 1 99 98 100 100 98 100 100 100 100 100 100 100 100 100 100 100 100 100 100 100 100 100 100
100 92 100 100 100 100 100 100 5 5 97 100 67 97 100 100 100 100 100 100 100 100 100 100 100 100 100 100 100 100 100 100
99 100 100 100 100 100 100 100 94 64 83 33 16 82 72 78 100 100 100 100 100 100 100 100 100 100 100 100 100 100 100 100
5 6 99 100 100 100 100 100 100 100 12 14 70 100 92 42 99 100 100 100 100 100 100 100 100 100 100 100 100 100 100 100
6 5 43 100 100 100 100 100 100 100 100 98 100 100 15 30 100 100 100 100 100 100 100 100 100 100 100 100 100 100 100 100
54 64 5 76 100 100 100 56 10 83 100 100 29 65 99 39 78 37 100 97 100 100 100 100 100 100 100 100 100 100 100 100
5 4 78 59 37 100 100 98 83 90 69 100 100 73 100 75 7 70 61 100 100 100 100 100 100 100 100 100 100 100 100 100
0 3 6 75 98 94 86 100 99 95 88 80 100 100 100 100 98 100 39 100 100 100 100 100 100 100 100 100 93 44 100 100
0 0 0 31 100 100 79 100 100 100 100 99 99 100 100 45 93 100 100 100 100 100 100 100 100 100 100 100 100 100 100 100